Tracking 34305 objects as of 6-Jun-2026
HD Live streaming from Space Station
objects crossing your sky now

STARLINK-37240

Track STARLINK-37240 now!
10-day predictions
STARLINK-37240 is classified as:


NORAD ID: 69031
Int'l Code: 2026-101G
Perigee: 424.8 km
Apogee: 427.3 km
Inclination: 97.3 °
Period: 92.9 minutes
Semi major axis: 6797 km
RCS: Unknown
Launch date: May 6, 2026
Source: United States (US)
Launch site: AIR FORCE WESTERN TEST RANGE (AFWTR)
Your satellite tracking list
Your tracking list is empty




NASA's NSSDC Master Catalog

Two Line Element Set (TLE):
1 69031U 26101G   26156.08289259  .00054551  00000-0  99587-3 0  9993
2 69031  97.2853  11.0429 0001816  75.5460 284.5992 15.49242369  4711
Source of the keplerian elements: AFSPC